Simultaneous Nadir Overpasses (SNOs) Predictions

Prediction of SNOs between AQUA and LANDSAT-8 Satellite Orbit:

Table of predicted SNOs for the next 14.0 days since TLE Epoch: 8/2/2025
Index Date (AQUA) Time (AQUA) Lat,Lon (AQUA) SZA (AQUA ) Date (LANDSAT-8) Time (LANDSAT-8) Lat,Lon (LANDSAT-8) SZA (LANDSAT-8 ) Distance(km) Time Diff (sec)
1 08/05/2025 13:02:32 -75.18, 172.93 121.59 08/05/2025 13:01:25 -75.14, 170.52 121.71 68.86 67
2 08/05/2025 13:51:55 75.39, -20.00 58.61 08/05/2025 13:50:45 75.42, -21.08 58.60 30.54 70
3 08/05/2025 14:41:16 -75.59, 147.11 121.20 08/05/2025 14:40:09 -75.60, 147.06 121.20 1.74 67
4 08/05/2025 15:30:35 75.60, -45.26 58.83 08/05/2025 15:29:34 75.62, -45.22 58.84 2.60 61
5 08/05/2025 16:19:52 -75.60, 122.43 121.17 08/05/2025 16:19:02 -75.60, 122.36 121.18 1.86 50
6 08/05/2025 17:09:11 75.62, -69.95 58.86 08/05/2025 17:08:27 75.63, -69.92 58.87 1.69 44
7 08/05/2025 17:58:28 -75.61, 97.74 121.14 08/05/2025 17:57:55 -75.61, 97.66 121.15 2.34 33
8 08/05/2025 18:47:47 75.63, -94.63 58.89 08/05/2025 18:47:20 75.64, -94.62 58.89 0.78 27
9 08/05/2025 19:37:04 -75.63, 73.05 121.11 08/05/2025 19:36:48 -75.61, 72.95 121.13 3.02 16
10 08/05/2025 20:26:23 75.64,-119.32 58.92 08/05/2025 20:26:13 75.64,-119.32 58.92 0.14 10
11 08/05/2025 21:15:40 -75.64, 48.36 121.08 08/05/2025 21:15:40 -75.67, 48.40 121.05 3.43 0
12 08/05/2025 22:04:59 75.66,-144.01 58.95 08/05/2025 22:05:06 75.65,-144.03 58.94 1.05 7
13 08/05/2025 22:54:16 -75.65, 23.68 121.05 08/05/2025 22:54:33 -75.68, 23.69 121.02 2.56 17
14 08/05/2025 23:43:35 75.67,-168.70 58.98 08/05/2025 23:43:59 75.65,-168.73 58.97 1.96 24
15 08/06/2025 00:32:52 -75.67, -1.01 121.01 08/06/2025 00:33:26 -75.68, -1.01 120.99 1.72 34
16 08/06/2025 01:22:11 75.68, 166.61 59.01 08/06/2025 01:22:52 75.66, 166.57 58.99 2.88 41
17 08/06/2025 02:11:28 -75.68, -25.70 120.98 08/06/2025 02:12:19 -75.69, -25.71 120.97 0.98 51
18 08/06/2025 03:00:47 75.70, 141.93 59.05 08/06/2025 03:01:44 75.72, 142.01 59.07 3.14 57
19 08/06/2025 03:50:04 -75.69, -50.39 120.95 08/06/2025 03:51:12 -75.70, -50.41 120.94 0.77 68
20 08/06/2025 04:39:25 75.81, 116.94 59.17 08/06/2025 04:40:36 75.77, 117.45 59.15 14.70 71
21 08/06/2025 05:28:50 -76.19, -76.60 120.47 08/06/2025 05:29:55 -76.19, -73.62 120.39 79.11 65



Historial Predications of SNOs between AQUA and LANDSAT-8
